Regional Weather Roundup
Issued by NWS Little Rock, AR

Home | Current Version | Previous Version | Text Only | Print | Product List | Glossary Off
Versions: 1 2 3 4 5 6 7 8 9 10 11 12 13 14 15 16 17 18 19 20 21 22 23 24 25 26 27 28 29 30 31 32 33 34 35 36 37 38 39 40 41 42 43 44 45 46 47

000
ASUS44 KLZK 042105
RWRLZK

WEATHER ROUNDUP FOR ARKANSAS
NATIONAL WEATHER SERVICE LITTLE ROCK AR
400 PM CDT SAT JUL 04 2015

NOTE: "FAIR" INDICATES FEW OR NO CLOUDS BELOW 12,000 FEET WITH NO
SIGNIFICANT WEATHER AND/OR OBSTRUCTIONS TO VISIBILITY.

ARZ001-003-010-029-042200-
NORTHWEST ARKANSAS

CITY           SKY/WX    TMP DP  RH WIND       PRES   REMARKS
FAYETTEVILLE   PTSUNNY   82  68  62 S7        29.96F HX  85
FORT SMITH     MOSUNNY   87  69  54 N6        29.92F HX  91
HARRISON       MOSUNNY   83  69  62 E8        29.98F HX  86
BENTONVILLE    PTSUNNY   84  64  51 E3        29.98F HX  86
ROGERS         MOSUNNY   83  67  58 S6        29.98F HX  85
SILOAM SPGS    SUNNY     84  66  54 CALM      29.97F HX  86
HIGHFILL       MOSUNNY   84  68  58 E7        29.97F HX  87
SPRINGDALE     MOSUNNY   84  68  58 NE6G13    29.99F HX  87
$$

ARZ004-005-016-042200-
NORTH CENTRAL ARKANSAS

CITY           SKY/WX    TMP DP  RH WIND       PRES   REMARKS
BATESVILLE     CLOUDY    81  70  69 E5        29.96F
FLIPPIN          N/A     82  66  57 SE3       29.94F HX  85
MTN HOME       MOSUNNY   83  70  64 SE8       29.96F HX  87
$$

ARZ040-041-042200-
WEST CENTRAL ARKANSAS

CITY           SKY/WX    TMP DP  RH WIND       PRES   REMARKS
MENA           SUNNY     84  73  70 S6        29.97F HX  91
MOUNT IDA      MOSUNNY   83  72  69 VRB7      29.94F HX  88
$$

ARZ009-017-025-026-028-042200-
NORTHEAST ARKANSAS

CITY           SKY/WX    TMP DP  RH WIND       PRES   REMARKS
JONESBORO      CLOUDY    79  69  71 CALM      29.95F
NEWPORT        CLOUDY    82  70  67 CALM      29.96F HX  86
WALNUT RIDGE   CLOUDY    79  72  78 N7        29.96S
BLYTHEVILLE    CLOUDY    79  73  82 SW5       29.96F
$$

ARZ022-023-033-042-044-042200-
CENTRAL ARKANSAS

CITY           SKY/WX    TMP DP  RH WIND       PRES   REMARKS
LITTLE ROCK    PTSUNNY   83  70  64 S6        29.96S HX  87
N LITTLE ROCK  PTSUNNY   82  72  71 SE6       29.96S HX  86
JACKSONVILLE   MOSUNNY   83  69  62 CALM      29.95S HX  86
SEARCY         PTSUNNY   84  72  67 SE5       29.96F HX  89
HOT SPRINGS    MOSUNNY   83  71  67 SW7       29.96F HX  87
RUSSELLVILLE   SUNNY     85  70  60 CALM      29.93F HX  89
CLINTON        FAIR      84  73  70 NE3       29.96S HX  91
$$

ARZ036-042200-
EAST ARKANSAS

CITY           SKY/WX    TMP DP  RH WIND       PRES   REMARKS
WEST MEMPHIS   CLOUDY    74  70  87 SW6       29.95F
$$

ARZ050-053-066-070-073-042200-
SOUTHWEST ARKANSAS

CITY           SKY/WX    TMP DP  RH WIND       PRES   REMARKS
ARKADELPHIA    FAIR      85  75  71 VRB6      29.96F HX  93
CAMDEN         MOSUNNY   75  68  78 MISG      29.98R
TEXARKANA      LGT RAIN  71  70  96 S10       29.99S
EL DORADO      CLOUDY    71  69  93 S5        29.98F
DE QUEEN       MOSUNNY   82  72  71 VRB7      29.94F HX  87
$$

ARZ056-057-069-042200-
SOUTHEAST ARKANSAS

CITY           SKY/WX    TMP DP  RH WIND       PRES   REMARKS
PINE BLUFF     SUNNY     80  66  62 SW12      29.97F
STUTTGART      MOSUNNY   81  70  69 MISG      29.96F
MONTICELLO     CLOUDY    76  69  79 W6        29.97F

$$





USA.gov is the U.S. government's official web portal to all federal, state and local government web resources and services.